Weather History for West Bend, WI

Change the Weather History Date:

Friday, November 23, 2012

  Actual Average Record
Temperature  
Mean Temperature 34 °F -  
Max Temperature 41 °F 40 °F 63 °F (1931)
Min Temperature 28 °F 25 °F -1 °F (1950)
Degree Days  
Heating Degree Days 30    
Moisture  
Dew Point 20 °F    
Average Humidity 63    
Maximum Humidity 70    
Minimum Humidity 55    
Precipitation  
Precipitation 0.00 in - - ()
Sea Level Pressure  
Sea Level Pressure 29.98 in    
Wind  
Wind Speed 20 mph (WNW)    
Max Wind Speed 28 mph    
Max Gust Speed 39 mph    
Visibility 10 miles    
Events Snow    
Averages and records for this station are not official NWS values.
T = Trace of Precipitation, MM = Missing Value Source: NWS Daily Summary

Daily Weather History Graph

Daily Weather History Graph

Search for Another Location

Airport:

Trip Planner

Search our weather history database for the weather conditions in past years. The results will help you decide how hot, cold, wet, or windy it might be!

Date:

Astronomy

Nov. 23, 2012 Rise Set
Actual Time 6:56 AM CST 4:21 PM CST
Civil Twilight 6:25 AM CST 4:52 PM CST
Nautical Twilight 5:50 AM CST 5:27 PM CST
Astronomical Twilight 5:15 AM CST 6:01 PM CST
Moon 1:41 PM CST (11/23) 2:08 AM CST (11/23)
Length of Visible Light 10h 27m
Length of Day
9h 24m
Waxing Gibbous, 80% of the Moon is Illuminated
Nov 23
Waxing Gibbous
Nov 28
Full
Dec 6
Last Quarter
Dec 13
New
Dec 19
First Quarter

Hourly Weather History & Observations

Time (CST) Temp. Windchill Dew Point Humidity Pressure Visibility Wind Dir Wind Speed Gust Speed Precip Events Conditions
12:15 AM 41.0 °F 31.1 °F 30.2 °F 65% 29.76 in 10.0 mi West 23.0 mph 33.4 mph N/A   Mostly Cloudy
12:35 AM 39.2 °F 29.3 °F 30.2 °F 70% 29.77 in 10.0 mi West 20.7 mph 29.9 mph N/A   Overcast
12:55 AM 39.2 °F 29.6 °F 30.2 °F 70% 29.77 in 10.0 mi West 19.6 mph 29.9 mph N/A   Overcast
1:15 AM 37.4 °F 26.1 °F 26.6 °F 65% 29.78 in 10.0 mi West 24.2 mph 36.8 mph N/A   Overcast
1:55 AM 37.4 °F 28.2 °F 28.4 °F 70% 29.79 in 10.0 mi West 16.1 mph 25.3 mph N/A   Overcast
2:15 AM 37.4 °F 27.5 °F 26.6 °F 65% 29.80 in 10.0 mi West 18.4 mph 29.9 mph N/A   Overcast
2:35 AM 35.6 °F 23.7 °F 24.8 °F 65% 29.80 in 10.0 mi West 24.2 mph 28.8 mph N/A   Overcast
2:55 AM 35.6 °F 25.9 °F 26.6 °F 70% 29.80 in 10.0 mi West 16.1 mph 28.8 mph N/A   Overcast
3:15 AM 35.6 °F 26.2 °F 26.6 °F 70% 29.80 in 10.0 mi West 15.0 mph 24.2 mph N/A   Overcast
3:35 AM 35.6 °F 27.1 °F 26.6 °F 70% 29.79 in 10.0 mi West 12.7 mph 20.7 mph N/A   Overcast
3:55 AM 35.6 °F 25.2 °F 26.6 °F 70% 29.79 in 10.0 mi West 18.4 mph 29.9 mph N/A   Overcast
4:15 AM 35.6 °F 24.2 °F 24.8 °F 65% 29.79 in 10.0 mi West 21.9 mph 33.4 mph N/A   Overcast
4:55 AM 33.8 °F 23.9 °F 23.0 °F 65% 29.80 in 10.0 mi West 15.0 mph 28.8 mph N/A   Overcast
5:15 AM 33.8 °F 23.2 °F 23.0 °F 65% 29.80 in 10.0 mi West 17.3 mph 31.1 mph N/A   Overcast
5:35 AM 32.0 °F 18.6 °F 23.0 °F 69% 29.81 in 10.0 mi West 25.3 mph 31.1 mph N/A   Overcast
5:55 AM 32.0 °F 19.2 °F 21.2 °F 64% 29.81 in 10.0 mi West 23.0 mph 36.8 mph N/A   Overcast
6:15 AM 32.0 °F 19.2 °F 21.2 °F 64% 29.82 in 10.0 mi West 23.0 mph 32.2 mph N/A   Overcast
6:55 AM 30.2 °F 16.8 °F 19.4 °F 64% 29.85 in 10.0 mi West 23.0 mph 33.4 mph N/A   Overcast
7:15 AM 30.2 °F 17.8 °F 17.6 °F 60% 29.86 in 10.0 mi West 19.6 mph 36.8 mph N/A   Overcast
7:35 AM 30.2 °F 18.1 °F 17.6 °F 60% 29.87 in 10.0 mi West 18.4 mph 33.4 mph N/A   Overcast
7:55 AM 28.4 °F 15.4 °F 17.6 °F 64% 29.88 in 10.0 mi West 19.6 mph 35.7 mph N/A   Overcast
8:15 AM 28.4 °F 16.2 °F 17.6 °F 64% 29.89 in 10.0 mi West 17.3 mph 35.7 mph N/A   Overcast
8:35 AM 28.4 °F 13.8 °F 19.4 °F 69% 29.91 in 10.0 mi WNW 25.3 mph 36.8 mph N/A   Overcast
8:55 AM 28.4 °F 15.1 °F 19.4 °F 69% 29.91 in 5.0 mi WNW 20.7 mph 31.1 mph N/A Snow Light Snow
9:15 AM 30.2 °F 17.4 °F 19.4 °F 64% 29.92 in 10.0 mi West 20.7 mph 34.5 mph N/A   Overcast
9:35 AM 30.2 °F 16.5 °F 17.6 °F 60% 29.93 in 10.0 mi West 24.2 mph 32.2 mph N/A   Overcast
9:55 AM 30.2 °F 18.5 °F 17.6 °F 60% 29.94 in 10.0 mi West 17.3 mph 34.5 mph N/A   Overcast
10:15 AM 30.2 °F 16.5 °F 17.6 °F 60% 29.94 in 10.0 mi West 24.2 mph 32.2 mph N/A   Overcast
10:35 AM 32.0 °F 20.1 °F 17.6 °F 55% 29.95 in 10.0 mi West 19.6 mph 33.4 mph N/A   Overcast
10:55 AM 32.0 °F 18.1 °F 17.6 °F 55% 29.95 in 10.0 mi West 27.6 mph 38.0 mph N/A   Overcast
11:15 AM 32.0 °F 18.9 °F 17.6 °F 55% 29.96 in 10.0 mi WNW 24.2 mph 32.2 mph N/A   Overcast
11:35 AM 30.2 °F 17.8 °F 17.6 °F 60% 29.96 in 10.0 mi West 19.6 mph 29.9 mph N/A   Overcast
11:55 AM 30.2 °F 17.4 °F 17.6 °F 60% 29.96 in 10.0 mi West 20.7 mph 34.5 mph N/A   Overcast
12:15 PM 32.0 °F 20.8 °F 17.6 °F 55% 29.97 in 10.0 mi West 17.3 mph 33.4 mph N/A   Overcast
12:35 PM 32.0 °F 19.2 °F 17.6 °F 55% 29.97 in 10.0 mi WNW 23.0 mph 32.2 mph N/A   Overcast
12:55 PM 32.0 °F 19.2 °F 17.6 °F 55% 29.99 in 10.0 mi WNW 23.0 mph 34.5 mph N/A   Overcast
1:15 PM 32.0 °F 18.6 °F 17.6 °F 55% 30.00 in 10.0 mi WNW 25.3 mph 35.7 mph N/A   Overcast
1:35 PM 32.0 °F 18.1 °F 17.6 °F 55% 30.00 in 10.0 mi West 27.6 mph 34.5 mph N/A   Overcast
1:55 PM 32.0 °F 19.5 °F 17.6 °F 55% 30.01 in 10.0 mi WNW 21.9 mph 32.2 mph N/A   Overcast
2:15 PM 32.0 °F 19.8 °F 17.6 °F 55% 30.02 in 10.0 mi WNW 20.7 mph 35.7 mph N/A   Overcast
2:35 PM 30.2 °F 16.5 °F 19.4 °F 64% 30.04 in 10.0 mi West 24.2 mph 31.1 mph N/A   Overcast
3:15 PM 30.2 °F 16.8 °F 19.4 °F 64% 30.07 in 10.0 mi WNW 23.0 mph 39.1 mph N/A   Overcast
3:35 PM 30.2 °F 17.1 °F 19.4 °F 64% 30.07 in 10.0 mi WNW 21.9 mph 29.9 mph N/A   Overcast
3:55 PM 30.2 °F 17.8 °F 17.6 °F 60% 30.08 in 10.0 mi West 19.6 mph 32.2 mph N/A   Overcast
4:15 PM 30.2 °F 18.5 °F 19.4 °F 64% 30.09 in 10.0 mi WNW 17.3 mph 33.4 mph N/A   Overcast
4:35 PM 30.2 °F 18.5 °F 19.4 °F 64% 30.10 in 10.0 mi WNW 17.3 mph 28.8 mph N/A   Overcast
4:55 PM 30.2 °F 18.1 °F 17.6 °F 60% 30.11 in 10.0 mi WNW 18.4 mph 26.5 mph N/A   Overcast
5:15 PM 30.2 °F 17.4 °F 17.6 °F 60% 30.11 in 10.0 mi WNW 20.7 mph 27.6 mph N/A   Overcast
5:35 PM 30.2 °F 17.4 °F 17.6 °F 60% 30.12 in 10.0 mi NW 20.7 mph 28.8 mph N/A   Overcast
5:55 PM 30.2 °F 18.1 °F 17.6 °F 60% 30.13 in 10.0 mi WNW 18.4 mph 28.8 mph N/A   Overcast
6:15 PM 30.2 °F 18.1 °F 17.6 °F 60% 30.14 in 10.0 mi NW 18.4 mph 31.1 mph N/A   Overcast
6:35 PM 30.2 °F 18.5 °F 17.6 °F 60% 30.15 in 10.0 mi WNW 17.3 mph 28.8 mph N/A   Overcast
6:55 PM 30.2 °F 19.8 °F 17.6 °F 60% 30.15 in 10.0 mi WNW 13.8 mph 19.6 mph N/A   Overcast
7:15 PM 30.2 °F 18.1 °F 17.6 °F 60% 30.15 in 10.0 mi WNW 18.4 mph 25.3 mph N/A   Overcast
7:35 PM 30.2 °F 20.8 °F 17.6 °F 60% 30.15 in 10.0 mi WNW 11.5 mph 23.0 mph N/A   Overcast
7:55 PM 30.2 °F 18.1 °F 17.6 °F 60% 30.15 in 10.0 mi WNW 18.4 mph 24.2 mph N/A   Overcast
8:15 PM 30.2 °F 18.1 °F 17.6 °F 60% 30.16 in 10.0 mi WNW 18.4 mph 24.2 mph N/A   Overcast
8:35 PM 28.4 °F 18.0 °F 17.6 °F 64% 30.16 in 10.0 mi NW 12.7 mph 18.4 mph N/A   Overcast
8:55 PM 28.4 °F 17.0 °F 17.6 °F 64% 30.16 in 10.0 mi WNW 15.0 mph 23.0 mph N/A   Overcast
9:15 PM 28.4 °F 16.2 °F 17.6 °F 64% 30.16 in 10.0 mi WNW 17.3 mph 25.3 mph N/A   Overcast
9:35 PM 28.4 °F 15.8 °F 17.6 °F 64% 30.16 in 10.0 mi WNW 18.4 mph 25.3 mph N/A   Overcast
9:55 PM 28.4 °F 15.8 °F 17.6 °F 64% 30.16 in 10.0 mi WNW 18.4 mph 24.2 mph N/A   Overcast
10:15 PM 28.4 °F 17.5 °F 17.6 °F 64% 30.16 in 10.0 mi WNW 13.8 mph 24.2 mph N/A   Overcast
10:35 PM 28.4 °F 15.4 °F 17.6 °F 64% 30.16 in 10.0 mi NW 19.6 mph 23.0 mph N/A   Overcast
10:55 PM 28.4 °F 16.6 °F 17.6 °F 64% 30.16 in 10.0 mi NW 16.1 mph 21.9 mph N/A   Overcast
11:15 PM 28.4 °F 19.1 °F 17.6 °F 64% 30.17 in 10.0 mi NW 10.4 mph 17.3 mph N/A   Overcast
11:35 PM 28.4 °F 17.0 °F 17.6 °F 64% 30.17 in 10.0 mi NW 15.0 mph - N/A   Overcast
11:55 PM 28.4 °F 18.0 °F 17.6 °F 64% 30.17 in 10.0 mi NW 12.7 mph 17.3 mph N/A   Overcast